Regional Weather Roundup
Issued by NWS

Home | Current Version | Previous Version | Text Only | Print | Product List | Glossary On
Versions: 1 2 3 4 5 6 7 8 9 10 11 12 13 14 15 16 17 18 19 20 21 22 23 24 25 26 27 28 29 30 31 32 33 34 35 36 37 38 39 40 41 42 43 44 45 46 47 48 49 50
000
ASCA44 KEWX 210420
RWRMX

LATIN AMERICA AND CARIBBEAN REGIONAL WEATHER ROUNDUP
NATIONAL WEATHER SERVICE AUSTIN/SAN ANTONIO TX
1100 PM CDT SUN APR 20 2014

NOTE: "FAIR" INDICATED FEW OR NO CLOUDS BELOW 12,000 FEET WITH NO
SIGNIFICANT WEATHER AND/OR OBSTRUCTIONS TO VISIBILITY.

BAJA CALIFORNIA

CITY           SKY/WX    TMP DP  RH WIND       PRES   REMARKS
LA PAZ         CLEAR     72  59  64 S9        29.99R
MEXICALI         N/A    N/A N/A N/A MISG        N/A
S.J. DEL CABO  CLEAR     73  61  64 S3        29.97R
TIJUANA        CLEAR     61  52  72 W6        30.06R

NORTHWESTERN MEXICO

CITY           SKY/WX    TMP DP  RH WIND       PRES   REMARKS
CULIACAN       CLEAR     73  63  68 CALM      29.93R
HERMOSILLO     CLEAR     77  37  24 CALM      29.99R
LOS MOCHIS       N/A    N/A N/A N/A MISG        N/A
OBREGON          N/A    N/A N/A N/A MISG        N/A

NORTHEASTERN MEXICO

CITY           SKY/WX    TMP DP  RH WIND       PRES   REMARKS
CHIHUAHUA      CLEAR     70  32  24 NW6       30.11R
MONTERREY      CLOUDY    72  68  88 E9        30.02R
SALTILLO       CLEAR     64  55  72 NE7       30.20R
TORREON        CLEAR     79  37  22 CALM      30.00

WESTERN MEXICO

CITY           SKY/WX    TMP DP  RH WIND       PRES   REMARKS
AGUASCALIENTES MOCLDY    70  34  26 N2        30.24R
DEL BAJIO      CLOUDY    70  45  40 E9        30.27R
GUADALAJARA    MOCLDY    73  43  33 W10       30.17R
MAZATLAN       CLEAR     70  64  83 W8        29.92R
P. VALLARTA    CLEAR     75  70  83 CALM      29.91R
ZACATECAS      PTCLDY    68  36  30 W17       30.28R

CENTRAL MEXICO

CITY           SKY/WX    TMP DP  RH WIND       PRES   REMARKS
MEXICO CITY    MOCLDY    68  34  28 N10       30.34R
MORELIA        MOCLDY    61  52  72 W3        30.26R
PUEBLA         MOCLDY    64  39  39 NW5       30.37R
QUERETARO      MOCLDY    66  45  45 E6        30.28R
S. LUIS POTOSI LGT RAIN  63  50  63 S18       30.29R
TAMPICO        MOCLDY    73  68  83 SE12      30.06R
TOLUCA         MOCLDY    57  37  47 N5        30.42S

SOUTHERN MEXICO

CITY           SKY/WX    TMP DP  RH WIND       PRES   REMARKS
ACAPULCO       CLEAR     82  75  78 W6        29.91R
VERACRUZ       PTCLDY    75  70  83 NE5       30.05R

YUCATAN PENINSULA

CITY           SKY/WX    TMP DP  RH WIND       PRES   REMARKS
CAMPECHE       RAIN      79  66  65 N12G23    30.00R
CANCUN         CLEAR     73  64  73 CALM      30.06S
CD. DEL CARMEN   N/A    N/A N/A N/A MISG        N/A
COZUMEL        CLEAR     72  64  78 E6        30.06R
MERIDA         CLEAR     75  63  64 E12       30.05R
TAPACHULA      CLEAR     84  79  84 CALM      29.94R HX  96
TUX. GUTIERREZ CLEAR     81  66  61 NW9       30.00R
VILLAHERMOSA   PTCLDY    77  73  88 NE8       30.02R

CENTRAL AMERICA

CITY           SKY/WX    TMP DP  RH WIND       PRES   REMARKS
MANAGUA        PTCLDY    84  68  58 SE7       29.89R

CARIBBEAN

CITY           SKY/WX    TMP DP  RH WIND       PRES   REMARKS
ARUBA          PTCLDY    81  73  78 E18       29.92S
KINGSTON       PTCLDY   N/A N/A N/A SE8       29.97S
NASSAU         PTCLDY    72  63  73 W3        30.02F
SAN JUAN       PTCLDY    77  70  78 CALM      30.05F
SANTO DOMINGO  PTCLDY    75  72  88 SE6       30.03S
ST. CROIX      PTCLDY    79  70  73 E12       30.05F
ST. MAARTEN    PTCLDY    79  70  73 E14       30.03F
ST. THOMAS     PTCLDY    75  73  94 E7        30.05F

$$




USA.gov is the U.S. government's official web portal to all federal, state and local government web resources and services.